Back to catalog

FENGYUN 1C DEB

AliveSSO
NORAD 30086·DEBRIS·🇨🇳 China

Launched May 10, 1999 from Taiyuan Satellite Launch Center

Loading…

Next Passes (next 24 hours)

TLE

FreshSource: Space-Track

Epoch: Sep 14, 2026, 13:49 UTC

1 30086U 99025QP  26257.57616038  .00000151  00000-0  12014-3 0  9998
2 30086  98.8813 290.4103 0062340  84.9745  67.8995 14.04086026  5625

Track FENGYUN 1C DEB in real time with AllMySat

Download on the App Store